Location: Allaines
(49.9632°N, 2.9458°E)
Time: 03:34:42
(UTC+00:00)

Cosmos 2184 Rocket - Pass Details

Date: 09 April 2020
Orbit: 958 x 1003 km, 82.9° (Epoch: 04 June)

Event Time Altitude Azimuth Distance (km) Brightness Sun altitude
Rises 18:59:01 0° 350° (N) 3,712 7.5 -4.8°
Reaches altitude 10° 19:01:33 10° 351° (N) 2,753 6.8 -5.2°
Maximum altitude 19:07:53 87° 82° (E) 985 4.1 -6.2°
Drops below altitude 10° 19:14:06 10° 171° (S) 2,704 6.0 -7.1°
Sets 19:16:35 0° 172° (S) 3,641 6.7 -7.5°
